This is the latest recevied weather packets stored in our database for station/object N4NVD-13. If no packets are shown the sender has not sent any weather packets the latest 10 day(s).
| Time | Temp. | Humidity | Pressure | Rain* | Wind** | Luminosity | Snow |
|---|---|---|---|---|---|---|---|
| 1777852776 | 23.89° C | 50% | 1016.8 hPa | 0 mm | - | 39 W/m² | - |
| 1777852474 | 24.44° C | 49% | 1016.9 hPa | 0 mm | - | 40 W/m² | - |
| 1777852171 | 24.44° C | 48% | 1016.8 hPa | 0 mm | - | 54 W/m² | - |
| 1777851869 | 25° C | 47% | 1016.7 hPa | 0 mm | - | 73 W/m² | - |
| 1777851567 | 25.56° C | 46% | 1016.8 hPa | 0 mm | - | 172 W/m² | - |
| 1777851263 | 25.56° C | 46% | 1016.9 hPa | 0 mm | - | 177 W/m² | - |
| 1777850960 | 25.56° C | 47% | 1016.6 hPa | 0 mm | - | 198 W/m² | - |
| 1777850657 | 25.56° C | 46% | 1016.7 hPa | 0 mm | - | 177 W/m² | - |
| 1777850355 | 25.56° C | 45% | 1016.7 hPa | 0 mm | - | 224 W/m² | - |
| 1777850052 | 26.11° C | 48% | 1016.7 hPa | 0 mm | - | 210 W/m² | - |
| 1777849748 | 26.11° C | 45% | 1016.9 hPa | 0 mm | - | 248 W/m² | - |
| 1777849444 | 26.11° C | 46% | 1016.8 hPa | 0 mm | - | 206 W/m² | - |
| 1777849143 | 26.11° C | 45% | 1016.8 hPa | 0 mm | - | 278 W/m² | - |
| 1777848838 | 25.56° C | 45% | 1016.9 hPa | 0 mm | - | 164 W/m² | - |
| 1777848534 | 25.56° C | 46% | 1017 hPa | 0 mm | - | 206 W/m² | - |
| 1777848231 | 26.11° C | 43% | 1017.1 hPa | 0 mm | - | 272 W/m² | - |
| 1777847929 | 25.56° C | 46% | 1017.1 hPa | 0 mm | - | 284 W/m² | - |
| 1777847627 | 25.56° C | 45% | 1017.2 hPa | 0 mm | - | 289 W/m² | - |
| 1777847322 | 25.56° C | 44% | 1017.3 hPa | 0 mm | - | 172 W/m² | - |
| 1777847021 | 25.56° C | 45% | 1017.2 hPa | 0 mm | - | 186 W/m² | - |
| 1777846719 | 26.11° C | 43% | 1017.2 hPa | 0 mm | - | 377 W/m² | - |
| 1777846417 | 25.56° C | 44% | 1017.4 hPa | 0 mm | - | 290 W/m² | - |
| 1777846113 | 26.11° C | 43% | 1017.4 hPa | 0 mm | - | 355 W/m² | - |
| 1777845810 | 26.67° C | 45% | 1017.4 hPa | 0 mm | - | 245 W/m² | - |
| 1777845507 | 26.67° C | 43% | 1017.5 hPa | 0 mm | - | 427 W/m² | - |
* Rain latest hour (hover to see other rain measurements)
** Current wind speed in m/s (hover to see current wind gust speed)